[[{"header":{"parameterUnit":"m.s-1","parameterCategory":1,"la1":30.2991,"la2":30.254,"lo1":-89.0895,"lo2":-89.0444,"dy":0.0017,"dx":0.0017,"nx":28,"ny":28,"refTime":"2024-10-04T21:00:00:Z","depth":0,"parameterNumber":2,"parameterNumberName":"U-component_of_WINDS"},"data":[0,0,0,0,0,0,0,0,0,0,0,0,0,0,0,0,0,0,0,0,0,0,0,0,0,0,0,0,0,0,0,0,0,0,0,0,0,0,0,0,0,0,0,0,0,0,0,0,0,0,0,0,0,0,0,0,0,0,-0.8379,-0.8382,0,-0.8636,-0.8639,-0.8642,-0.8692,-0.869,-0.8688,-0.8686,-0.896,-0.8969,-0.8978,0,0,0,0,0,0,0,0,0,0,0,0,0,-0.7941,-0.7949,-0.8379,-0.8382,-0.8385,-0.8636,-0.8639,-0.8643,-0.8692,-0.869,-0.8687,-0.8685,-0.8957,-0.8967,-0.8979,0,0,0,0,0,0,0,0,0,0,0,0,0,-0.8159,-0.7952,-0.8378,-0.844,-0.8448,-0.8635,-0.864,-0.8644,-0.8693,-0.869,-0.8687,-0.8684,-0.8953,-0.8966,-0.898,-0.9127,0,0,-0.9022,-0.9028,0,0,0,0,0,0,0,0,-0.8146,-0.8175,-0.8428,-0.8436,-0.8445,-0.8629,-0.8586,-0.8806,-0.8694,-0.86,-0.8686,-0.8682,-0.8853,-0.8875,-0.893,-0.914,-0.9152,-0.9023,-0.9032,-0.9038,-0.9042,0,0,0,0,0,0,0,-0.8131,-0.8164,-0.8481,-0.8431,-0.8442,-0.8458,-0.8486,-0.8628,-0.8741,-0.8608,-0.8612,-0.8642,-0.8857,-0.8916,-0.8937,-0.9156,-0.9023,-0.9035,-0.9044,-0.9049,-0.9505,-0.9509,0,0,0,0,0,0,-0.8104,-0.8151,-0.8473,-0.8489,-0.8285,-0.8469,-0.8499,-0.8573,-0.8739,-0.8762,-0.8644,-0.8643,-0.8894,-0.8921,-0.8947,-0.9135,-0.9038,-0.9051,-0.9059,-0.9501,-0.9506,-0.951,0,0,0,0,0,0,-0.8094,-0.8132,-0.8463,-0.8321,-0.8364,-0.8479,-0.8562,-0.858,-0.8639,-0.8766,-0.8788,-0.8683,-0.8893,-0.8927,-0.9082,-0.9145,-0.9057,-0.9069,-0.9497,-0.9503,-0.9508,-0.9508,0,0,0,0,0,0,-0.8081,-0.8128,-0.8182,-0.8322,-0.8372,-0.8591,-0.8566,-0.8587,-0.8662,-0.8663,-0.8809,-0.883,-0.8893,-0.9062,-0.9096,-0.9162,-0.908,-0.9492,-0.95,-0.9506,-0.9504,-0.9513,-0.9522,0,0,0,0,0,-0.8065,-0.8173,-0.8185,-0.8224,-0.8442,-0.8594,-0.8623,-0.869,-0.8666,-0.8725,-0.8807,-0.8826,-0.913,-0.9077,-0.9116,-0.9187,-0.9489,-0.9497,-0.9506,-0.9499,-0.9512,-0.9522,0,0,0,0,0,0,-0.8042,-0.8193,-0.8207,-0.8363,-0.8465,-0.8602,-0.8677,-0.87,-0.8814,-0.8811,-0.8892,-0.8925,-0.9077,-0.9147,-0.9084,-0.9341,-0.9309,-0.9326,-0.929,-0.9303,-0.9312,-0.9295,-0.9092,0,0,0,0,0,-0.8054,-0.8162,-0.8289,-0.8414,-0.8464,-0.8562,-0.8631,-0.8673,-0.8784,-0.8828,-0.8922,-0.9031,-0.9152,-0.9231,-0.9349,-0.9512,-0.9548,-0.9581,-0.959,-0.9597,-0.9612,-0.971,-0.9728,-0.9539,-0.9538,-0.9538,0,0,-0.8082,-0.8178,-0.8241,-0.8412,-0.8496,-0.8611,-0.8598,-0.8718,-0.8806,-0.8848,-0.9001,-0.9073,-0.9201,-0.9362,-0.9438,-0.9425,-0.9672,-0.9608,-0.9612,-0.9625,-0.9721,-0.9738,-0.9754,-0.9544,-0.9543,-0.9542,0,0,-0.8193,-0.8273,-0.8388,-0.8472,-0.8599,-0.8663,-0.869,-0.8824,-0.8873,-0.9027,-0.9062,-0.9168,-0.9373,-0.9465,-0.9538,-0.9683,-0.9708,-0.9719,-0.977,-0.9864,-0.9879,-0.9893,-0.9951,-0.997,-0.9733,-0.9733,-0.9733,0,-0.8213,-0.8383,-0.8446,-0.8566,-0.8642,-0.8681,-0.8802,-0.8881,-0.9041,-0.9095,-0.9077,-0.9338,-0.9426,-0.9612,-0.9647,-0.9703,-0.9742,-0.9706,-0.987,-0.9885,-0.9899,-0.9955,-0.9976,-0.9734,-0.9734,-0.9734,-0.9734,0,-0.8404,-0.8521,-0.86,-0.8751,-0.8836,-0.8955,-0.904,-0.9119,-0.9154,-0.9221,-0.938,-0.9486,-0.9629,-0.9675,-0.9711,-0.9868,-0.9857,-0.9853,-0.9824,-0.9917,-0.9972,-0.9993,-0.9735,-0.9735,-0.9735,-0.9734,0,0,-0.8511,-0.8694,-0.8723,-0.8793,-0.8935,-0.903,-0.9152,-0.9288,-0.9357,-0.9465,-0.9575,-0.9747,-0.9746,-0.9829,-0.9875,-0.9957,-1.0072,-0.9945,-0.9949,-0.997,-1.0259,-1.0265,-1.0288,-1.0086,-1.0091,-1.0094,-1.025,0,-0.8644,-0.886,-0.8921,-0.9107,-0.9219,-0.9258,-0.9366,-0.9467,-0.9533,-0.9641,-0.9715,-0.9838,-0.9823,-0.9875,-0.9956,-1.0041,-1.0133,-1.0029,-1.0196,-1.0201,-1.0168,-1.0316,-1.0322,-1.0465,-1.0271,-1.0275,-1.0277,0,-0.8828,-0.8938,-0.9134,-0.9264,-0.9314,-0.9409,-0.9541,-0.9641,-0.9758,-0.9801,-0.9893,-0.9932,-1.0067,-1.0025,-1.0215,-1.0143,-1.0214,-1.0266,-1.0273,-1.0297,-1.0249,-1.035,-1.0511,-1.0535,-1.031,-1.0308,-1.0305,0,-0.8894,-0.909,-0.9235,-0.9293,-0.9446,-0.9514,-0.9582,-0.9695,-0.9774,-0.989,-0.9943,-1.0073,-1.0146,-1.0249,-1.0324,-1.0285,-1.051,-1.0473,-1.0555,-1.0553,-1.0606,-1.0603,-1.0787,-1.064,-1.064,-1.0639,-1.0639,0,-0.9039,-0.916,-0.9267,-0.9356,-0.9493,-0.9562,-0.9697,-0.9767,-0.9868,-0.9975,-1.0015,-1.0116,-1.0206,-1.032,-1.038,-1.0532,-1.0563,-1.0606,-1.0622,-1.0606,-1.0602,-1.0659,-1.0653,-1.0645,-1.0644,-1.0643,-1.0642,0,-0.9139,-0.9214,-0.9375,-0.9506,-0.9542,-0.9638,-0.9754,-0.9844,-0.9909,-1.0045,-1.0081,-1.0187,-1.0323,-1.0406,-1.058,-1.062,-1.079,-1.0798,-1.075,-1.0758,-1.0838,-1.0832,-1.1071,-1.1109,-1.093,-1.0931,-1.0933,0,-0.923,-0.9323,-0.9464,-0.9537,-0.9605,-0.9721,-0.9802,-0.9874,-0.9957,-1.0098,-1.0173,-1.031,-1.0426,-1.0642,-1.0738,-1.0872,-1.0889,-1.0963,-1.091,-1.0892,-1.0898,-1.0894,-1.0907,-1.0974,-1.0976,-1.0977,-1.0978,0,-0.9386,-0.9419,-0.9531,-0.9657,-0.9751,-0.9855,-0.9958,-1.0017,-1.0107,-1.0199,-1.0337,-1.0426,-1.0602,-1.0741,-1.0883,-1.0958,-1.0987,-1.0993,-1.102,-1.1009,-1.098,-1.1004,-1.0781,-1.0989,-1.0988,-1.0987,-1.0986,-1.0986,-0.949,-0.9576,-0.9689,-0.9814,-0.9898,-0.9994,-1.0087,-1.0163,-1.0278,-1.0425,-1.0461,-1.0608,-1.0726,-1.0919,-1.0997,-1.1116,-1.1106,-1.1144,-1.1155,-1.1165,-1.117,-1.0954,-1.1142,-1.1141,-1.1141,-1.1141,-1.1141,0,-0.9654,-0.9727,-0.9841,-0.9983,-1.0083,-1.0093,-1.0209,-1.0293,-1.042,-1.0526,-1.0637,-1.0799,-1.0934,-1.1038,-1.1178,-1.1254,-1.1271,-1.1289,-1.1288,-1.1307,-1.1168,-1.1134,-1.1274,-1.1274,-1.1274,-1.1274,-1.1274,-1.1274,-0.9751,-0.9899,-0.9945,-1.0137,-1.0211,-1.0352,-1.0418,-1.0509,-1.0594,-1.0771,-1.0882,-1.0948,-1.1055,-1.1203,-1.133,-1.1357,-1.1411,-1.1428,-1.1459,-1.1329,-1.1315,-1.1302,-1.127,-1.1437,-1.1437,-1.1588,-1.159,-1.1591]},{"header":{"parameterUnit":"m.s-1","parameterCategory":1,"la1":30.2991,"la2":30.254,"lo1":-89.0895,"lo2":-89.0444,"dy":0.0017,"dx":0.0017,"nx":28,"ny":28,"refTime":"2024-10-04T21:00:00:Z","depth":0,"parameterNumber":3,"parameterNumberName":"V-component_of_WINDS"},"data":[0,0,0,0,0,0,0,0,0,0,0,0,0,0,0,0,0,0,0,0,0,0,0,0,0,0,0,0,0,0,0,0,0,0,0,0,0,0,0,0,0,0,0,0,0,0,0,0,0,0,0,0,0,0,0,0,0,0,-2.7203,-2.7203,0,-2.7197,-2.7197,-2.7197,-2.7139,-2.7138,-2.7136,-2.7135,-2.7128,-2.713,-2.7131,0,0,0,0,0,0,0,0,0,0,0,0,0,-2.7166,-2.7167,-2.7203,-2.7203,-2.7203,-2.7197,-2.7197,-2.7197,-2.7139,-2.7137,-2.7136,-2.7134,-2.7128,-2.7129,-2.7131,0,0,0,0,0,0,0,0,0,0,0,0,0,-2.7173,-2.7167,-2.7203,-2.7174,-2.7171,-2.7197,-2.7197,-2.7197,-2.714,-2.7137,-2.7135,-2.7133,-2.7128,-2.7129,-2.7131,-2.7185,0,0,-2.7136,-2.7137,0,0,0,0,0,0,0,0,-2.7173,-2.7175,-2.7178,-2.7176,-2.7173,-2.7166,-2.7181,-2.7193,-2.714,-2.7152,-2.7135,-2.7132,-2.7143,-2.7143,-2.7147,-2.7184,-2.7184,-2.7137,-2.7138,-2.7138,-2.7139,0,0,0,0,0,0,0,-2.7173,-2.7175,-2.7201,-2.7178,-2.7175,-2.7161,-2.7159,-2.7183,-2.7159,-2.715,-2.7146,-2.7146,-2.7141,-2.7145,-2.7146,-2.7184,-2.7136,-2.7138,-2.7139,-2.714,-2.7265,-2.7267,0,0,0,0,0,0,-2.7176,-2.7175,-2.7201,-2.7201,-2.7168,-2.7163,-2.7162,-2.7171,-2.7159,-2.7155,-2.7148,-2.7144,-2.7143,-2.7144,-2.7146,-2.7207,-2.7138,-2.714,-2.7141,-2.7263,-2.7265,-2.7268,0,0,0,0,0,0,-2.7176,-2.7179,-2.7201,-2.7186,-2.7188,-2.7166,-2.7177,-2.7172,-2.7176,-2.7157,-2.7153,-2.7157,-2.7142,-2.7143,-2.7175,-2.7206,-2.7141,-2.7142,-2.726,-2.7263,-2.7267,-2.7331,0,0,0,0,0,0,-2.7175,-2.7179,-2.7199,-2.7187,-2.7189,-2.7231,-2.7179,-2.7173,-2.7179,-2.7173,-2.7164,-2.716,-2.714,-2.7173,-2.7177,-2.7207,-2.7144,-2.7257,-2.7261,-2.7266,-2.7326,-2.7336,-2.7345,0,0,0,0,0,-2.7174,-2.7218,-2.7201,-2.7204,-2.7214,-2.7233,-2.7234,-2.7209,-2.7182,-2.7202,-2.719,-2.7161,-2.7202,-2.7177,-2.7181,-2.7212,-2.7255,-2.726,-2.7265,-2.7322,-2.7334,-2.7345,0,0,0,0,0,0,-2.7235,-2.7216,-2.7197,-2.7239,-2.7238,-2.7223,-2.7248,-2.7224,-2.7231,-2.7225,-2.7194,-2.7193,-2.7229,-2.7224,-2.7196,-2.7263,-2.7224,-2.723,-2.7265,-2.7277,-2.7286,-2.7287,-2.7145,0,0,0,0,0,-2.7253,-2.727,-2.7253,-2.7292,-2.7292,-2.727,-2.7278,-2.7259,-2.7257,-2.7256,-2.7246,-2.7246,-2.7258,-2.7267,-2.7278,-2.7325,-2.7322,-2.7349,-2.7358,-2.7366,-2.7372,-2.7396,-2.7407,-2.7285,-2.7285,-2.7284,0,0,-2.7291,-2.7283,-2.7296,-2.7304,-2.7301,-2.7319,-2.727,-2.7292,-2.7305,-2.7259,-2.7289,-2.7282,-2.7279,-2.7319,-2.7336,-2.7315,-2.7405,-2.7373,-2.7379,-2.738,-2.7402,-2.7414,-2.7424,-2.7288,-2.7287,-2.7287,0,0,-2.737,-2.7366,-2.7397,-2.7395,-2.7391,-2.7376,-2.7384,-2.7373,-2.7367,-2.7396,-2.7362,-2.7377,-2.74,-2.7399,-2.7401,-2.7479,-2.7453,-2.7484,-2.7533,-2.7557,-2.7566,-2.7575,-2.7602,-2.7612,-2.7489,-2.749,-2.749,0,-2.7418,-2.7444,-2.7416,-2.744,-2.7444,-2.7403,-2.7435,-2.7434,-2.7435,-2.7438,-2.7416,-2.7443,-2.7438,-2.7477,-2.7496,-2.7499,-2.7507,-2.7484,-2.7567,-2.7575,-2.7583,-2.7609,-2.7619,-2.7493,-2.7493,-2.7493,-2.7492,0,-2.7503,-2.7521,-2.7547,-2.7547,-2.7555,-2.7582,-2.7559,-2.7569,-2.755,-2.7537,-2.7567,-2.756,-2.7568,-2.7576,-2.7558,-2.7612,-2.7599,-2.7573,-2.7532,-2.7599,-2.7622,-2.7632,-2.7499,-2.7497,-2.7496,-2.7495,0,0,-2.762,-2.7604,-2.7614,-2.7614,-2.7606,-2.762,-2.7646,-2.7653,-2.7663,-2.7664,-2.7685,-2.7705,-2.7679,-2.7682,-2.7663,-2.7684,-2.7746,-2.7654,-2.7654,-2.7671,-2.7805,-2.7825,-2.7837,-2.7728,-2.773,-2.7731,-2.7805,0,-2.7695,-2.7737,-2.7713,-2.7759,-2.7775,-2.7737,-2.7759,-2.7756,-2.7745,-2.7758,-2.7745,-2.776,-2.7726,-2.7727,-2.7746,-2.7734,-2.7772,-2.7729,-2.7747,-2.7748,-2.7748,-2.7849,-2.7871,-2.794,-2.7814,-2.7816,-2.7817,0,-2.7788,-2.7793,-2.784,-2.7829,-2.7835,-2.7855,-2.786,-2.7873,-2.7869,-2.786,-2.7863,-2.7839,-2.7863,-2.7823,-2.7855,-2.7826,-2.7832,-2.7828,-2.783,-2.783,-2.7786,-2.7852,-2.7962,-2.7972,-2.7831,-2.783,-2.7829,0,-2.7868,-2.7887,-2.7917,-2.7918,-2.7906,-2.7921,-2.7917,-2.7911,-2.7917,-2.7922,-2.7925,-2.7933,-2.7937,-2.7943,-2.7921,-2.7894,-2.7957,-2.7915,-2.7949,-2.795,-2.7964,-2.7963,-2.8076,-2.7969,-2.7968,-2.7968,-2.7968,0,-2.7954,-2.7985,-2.7953,-2.7971,-2.8004,-2.7976,-2.8009,-2.8001,-2.7996,-2.8013,-2.798,-2.7996,-2.7967,-2.798,-2.7963,-2.7992,-2.7994,-2.7987,-2.7982,-2.799,-2.7991,-2.7993,-2.7988,-2.7971,-2.797,-2.797,-2.7969,0,-2.8049,-2.8029,-2.806,-2.8045,-2.8043,-2.8067,-2.8055,-2.8072,-2.8058,-2.8079,-2.8083,-2.8062,-2.8076,-2.8055,-2.8066,-2.8055,-2.8095,-2.8083,-2.8096,-2.8092,-2.8127,-2.8124,-2.8245,-2.826,-2.8144,-2.8145,-2.8146,0,-2.8106,-2.8128,-2.8116,-2.8124,-2.8121,-2.8136,-2.8141,-2.8115,-2.8122,-2.812,-2.8137,-2.8148,-2.8155,-2.8179,-2.8165,-2.8173,-2.8161,-2.8203,-2.8162,-2.8169,-2.8161,-2.816,-2.8161,-2.8211,-2.8212,-2.8213,-2.8214,0,-2.8207,-2.8196,-2.8205,-2.8211,-2.8219,-2.8223,-2.8224,-2.8233,-2.8204,-2.8214,-2.8228,-2.8233,-2.8245,-2.8256,-2.8261,-2.8256,-2.8231,-2.8227,-2.8236,-2.8243,-2.825,-2.8246,-2.8118,-2.8225,-2.8224,-2.8223,-2.8222,-2.8222,-2.8284,-2.8301,-2.8296,-2.8307,-2.8305,-2.8307,-2.8321,-2.831,-2.832,-2.8327,-2.8311,-2.8328,-2.8324,-2.8328,-2.8326,-2.8339,-2.8321,-2.8333,-2.8336,-2.8339,-2.8345,-2.8248,-2.834,-2.834,-2.834,-2.8339,-2.8339,0,-2.8383,-2.8377,-2.8388,-2.839,-2.84,-2.8374,-2.8374,-2.8383,-2.8399,-2.8397,-2.8404,-2.842,-2.843,-2.8417,-2.8425,-2.8438,-2.8427,-2.8441,-2.844,-2.8439,-2.8361,-2.8353,-2.8451,-2.8451,-2.8451,-2.845,-2.845,-2.845,-2.8436,-2.8464,-2.8452,-2.8479,-2.8473,-2.8489,-2.8491,-2.8493,-2.8491,-2.8509,-2.8518,-2.8509,-2.8502,-2.851,-2.8518,-2.8514,-2.8518,-2.8537,-2.8529,-2.8456,-2.8445,-2.8434,-2.8426,-2.8538,-2.8539,-2.8606,-2.8607,-2.8607]}]]